Year,Month,Day,Hour,Minute,Value (Times are PST for windspeed in km/hr)
2013,09,29,00,00,0.80
2013,09,29,00,01,0.00
2013,09,29,00,02,0.00
2013,09,29,00,03,0.00
2013,09,29,00,04,0.00
2013,09,29,00,05,0.00
2013,09,29,00,06,0.00
2013,09,29,00,07,0.00
2013,09,29,00,08,0.00
2013,09,29,00,09,1.70
2013,09,29,00,10,4.80
2013,09,29,00,11,2.20
2013,09,29,00,12,4.10
2013,09,29,00,13,0.10
2013,09,29,00,14,0.00
2013,09,29,00,15,0.00
2013,09,29,00,16,0.00
2013,09,29,00,17,0.00
2013,09,29,00,18,0.00
2013,09,29,00,19,0.00
2013,09,29,00,20,0.20
2013,09,29,00,21,0.00
2013,09,29,00,22,0.00
2013,09,29,00,23,0.00
2013,09,29,00,24,0.00
2013,09,29,00,25,0.00
2013,09,29,00,26,0.30
2013,09,29,00,27,0.00
2013,09,29,00,28,2.80
2013,09,29,00,29,4.70
2013,09,29,00,30,4.90
2013,09,29,00,31,4.10
2013,09,29,00,32,1.50
2013,09,29,00,33,0.10
2013,09,29,00,34,0.00
2013,09,29,00,35,0.00
2013,09,29,00,36,0.00
2013,09,29,00,37,0.80
2013,09,29,00,38,2.20
2013,09,29,00,39,0.10
2013,09,29,00,40,0.10
2013,09,29,00,41,0.00
2013,09,29,00,42,0.10
2013,09,29,00,43,4.50
2013,09,29,00,44,4.20
2013,09,29,00,45,3.80
2013,09,29,00,46,2.90
2013,09,29,00,47,3.10
2013,09,29,00,48,0.70
2013,09,29,00,49,3.50
2013,09,29,00,50,5.70
2013,09,29,00,51,4.70
2013,09,29,00,52,4.00
2013,09,29,00,53,6.30
2013,09,29,00,54,4.20
2013,09,29,00,55,5.60
2013,09,29,00,56,3.20
2013,09,29,00,57,3.50
2013,09,29,00,58,1.80
2013,09,29,00,59,2.50
2013,09,29,01,00,0.80
2013,09,29,01,01,0.20
2013,09,29,01,02,0.00
2013,09,29,01,03,0.00
2013,09,29,01,04,0.00
2013,09,29,01,05,0.50
2013,09,29,01,06,0.10
2013,09,29,01,07,0.00
2013,09,29,01,08,0.00
2013,09,29,01,09,0.00
2013,09,29,01,10,0.00
2013,09,29,01,11,2.50
2013,09,29,01,12,0.40
2013,09,29,01,13,0.00
2013,09,29,01,14,0.00
2013,09,29,01,15,0.00
2013,09,29,01,16,0.00
2013,09,29,01,17,0.00
2013,09,29,01,18,0.00
2013,09,29,01,19,0.00
2013,09,29,01,20,0.10
2013,09,29,01,21,3.90
2013,09,29,01,22,1.40
2013,09,29,01,23,2.90
2013,09,29,01,24,2.30
2013,09,29,01,25,1.00
2013,09,29,01,26,0.00
2013,09,29,01,27,0.00
2013,09,29,01,28,0.00
2013,09,29,01,29,3.10
2013,09,29,01,30,5.60
2013,09,29,01,31,6.40
2013,09,29,01,32,6.40
2013,09,29,01,33,5.60
2013,09,29,01,34,4.50
2013,09,29,01,35,7.10
2013,09,29,01,36,9.00
2013,09,29,01,37,9.20
2013,09,29,01,38,14.10
2013,09,29,01,39,8.80
2013,09,29,01,40,4.10
2013,09,29,01,41,2.90
2013,09,29,01,42,2.00
2013,09,29,01,43,3.40
2013,09,29,01,44,4.20
2013,09,29,01,45,0.00
2013,09,29,01,46,0.00
2013,09,29,01,47,0.00
2013,09,29,01,48,0.00
2013,09,29,01,49,0.00
2013,09,29,01,50,0.00
2013,09,29,01,51,0.00
2013,09,29,01,52,0.00
2013,09,29,01,53,4.00
2013,09,29,01,54,4.40
2013,09,29,01,55,5.90
2013,09,29,01,56,5.70
2013,09,29,01,57,2.60
2013,09,29,01,58,3.70
2013,09,29,01,59,4.70
2013,09,29,02,00,3.50
2013,09,29,02,01,1.40
2013,09,29,02,02,5.00
2013,09,29,02,03,5.60
2013,09,29,02,04,7.30
2013,09,29,02,05,6.10
2013,09,29,02,06,2.50
2013,09,29,02,07,6.10
2013,09,29,02,08,3.60
2013,09,29,02,09,3.90
2013,09,29,02,10,1.90
2013,09,29,02,11,2.20
2013,09,29,02,12,1.50
2013,09,29,02,13,0.00
2013,09,29,02,14,0.00
2013,09,29,02,15,0.00
2013,09,29,02,16,0.00
2013,09,29,02,17,0.00
2013,09,29,02,18,0.00
2013,09,29,02,19,0.70
2013,09,29,02,20,3.70
2013,09,29,02,21,3.70
2013,09,29,02,22,3.10
2013,09,29,02,23,2.30
2013,09,29,02,24,3.90
2013,09,29,02,25,5.70
2013,09,29,02,26,5.60
2013,09,29,02,27,9.30
2013,09,29,02,28,4.20
2013,09,29,02,29,4.20
2013,09,29,02,30,4.90
2013,09,29,02,31,0.80
2013,09,29,02,32,4.10
2013,09,29,02,33,6.40
2013,09,29,02,34,6.10
2013,09,29,02,35,4.90
2013,09,29,02,36,1.30
2013,09,29,02,37,0.00
2013,09,29,02,38,0.00
2013,09,29,02,39,2.00
2013,09,29,02,40,1.70
2013,09,29,02,41,4.70
2013,09,29,02,42,6.00
2013,09,29,02,43,5.20
2013,09,29,02,44,5.40
2013,09,29,02,45,2.60
2013,09,29,02,46,2.90
2013,09,29,02,47,2.00
2013,09,29,02,48,0.00
2013,09,29,02,49,0.00
2013,09,29,02,50,0.10
2013,09,29,02,51,0.00
2013,09,29,02,52,0.30
2013,09,29,02,53,0.00
2013,09,29,02,54,0.00
2013,09,29,02,55,0.00
2013,09,29,02,56,0.60
2013,09,29,02,57,1.40
2013,09,29,02,58,2.00
2013,09,29,02,59,0.10
2013,09,29,03,00,1.40
2013,09,29,03,01,0.00
2013,09,29,03,02,0.00
2013,09,29,03,03,0.10
2013,09,29,03,04,3.10
2013,09,29,03,05,4.10
2013,09,29,03,06,4.40
2013,09,29,03,07,4.30
2013,09,29,03,08,4.30
2013,09,29,03,09,4.10
2013,09,29,03,10,4.70
2013,09,29,03,11,4.30
2013,09,29,03,12,3.50
2013,09,29,03,13,4.50
2013,09,29,03,14,4.20
2013,09,29,03,15,3.40
2013,09,29,03,16,5.10
2013,09,29,03,17,4.30
2013,09,29,03,18,3.10
2013,09,29,03,19,2.70
2013,09,29,03,20,3.90
2013,09,29,03,21,1.50
2013,09,29,03,22,5.90
2013,09,29,03,23,4.50
2013,09,29,03,24,7.20
2013,09,29,03,25,8.90
2013,09,29,03,26,5.10
2013,09,29,03,27,5.10
2013,09,29,03,28,4.30
2013,09,29,03,29,4.50
2013,09,29,03,30,5.30
2013,09,29,03,31,2.00
2013,09,29,03,32,3.00
2013,09,29,03,33,1.60
2013,09,29,03,34,2.80
2013,09,29,03,35,2.00
2013,09,29,03,36,0.60
2013,09,29,03,37,0.00
2013,09,29,03,38,0.00
2013,09,29,03,39,0.00
2013,09,29,03,40,0.00
2013,09,29,03,41,0.00
2013,09,29,03,42,0.00
2013,09,29,03,43,0.00
2013,09,29,03,44,0.00
2013,09,29,03,45,0.00
2013,09,29,03,46,0.00
2013,09,29,03,47,0.00
2013,09,29,03,48,0.00
2013,09,29,03,49,1.10
2013,09,29,03,50,2.50
2013,09,29,03,51,2.90
2013,09,29,03,52,3.60
2013,09,29,03,53,2.30
2013,09,29,03,54,4.20
2013,09,29,03,55,3.30
2013,09,29,03,56,0.00
2013,09,29,03,57,0.00
2013,09,29,03,58,0.00
2013,09,29,03,59,0.20
2013,09,29,04,00,0.00
2013,09,29,04,01,0.00
2013,09,29,04,02,0.40
2013,09,29,04,03,0.30
2013,09,29,04,04,0.00
2013,09,29,04,05,0.00
2013,09,29,04,06,0.60
2013,09,29,04,07,0.00
2013,09,29,04,08,0.00
2013,09,29,04,09,0.00
2013,09,29,04,10,2.20
2013,09,29,04,11,1.40
2013,09,29,04,12,0.90
2013,09,29,04,13,0.00
2013,09,29,04,14,1.40
2013,09,29,04,15,0.40
2013,09,29,04,16,0.10
2013,09,29,04,17,0.10
2013,09,29,04,18,4.30
2013,09,29,04,19,0.10
2013,09,29,04,20,0.00
2013,09,29,04,21,2.20
2013,09,29,04,22,1.50
2013,09,29,04,23,2.80
2013,09,29,04,24,2.90
2013,09,29,04,25,0.00
2013,09,29,04,26,0.00
2013,09,29,04,27,0.30
2013,09,29,04,28,0.00
2013,09,29,04,29,0.00
2013,09,29,04,30,0.30
2013,09,29,04,31,0.70
2013,09,29,04,32,0.00
2013,09,29,04,33,0.00
2013,09,29,04,34,0.00
2013,09,29,04,35,0.10
2013,09,29,04,36,1.90
2013,09,29,04,37,0.60
2013,09,29,04,38,0.50
2013,09,29,04,39,0.00
2013,09,29,04,40,0.10
2013,09,29,04,41,5.10
2013,09,29,04,42,5.20
2013,09,29,04,43,5.50
2013,09,29,04,44,3.00
2013,09,29,04,45,1.70
2013,09,29,04,46,3.00
2013,09,29,04,47,0.90
2013,09,29,04,48,0.00
2013,09,29,04,49,2.00
2013,09,29,04,50,0.50
2013,09,29,04,51,4.60
2013,09,29,04,52,4.00
2013,09,29,04,53,5.60
2013,09,29,04,54,3.90
2013,09,29,04,55,3.30
2013,09,29,04,56,5.10
2013,09,29,04,57,6.50
2013,09,29,04,58,4.50
2013,09,29,04,59,3.50
2013,09,29,05,00,1.50
2013,09,29,05,01,3.20
2013,09,29,05,02,4.30
2013,09,29,05,03,5.10
2013,09,29,05,04,5.70
2013,09,29,05,05,5.00
2013,09,29,05,06,5.70
2013,09,29,05,07,2.70
2013,09,29,05,08,2.80
2013,09,29,05,09,3.30
2013,09,29,05,10,3.90
2013,09,29,05,11,5.20
2013,09,29,05,12,5.60
2013,09,29,05,13,5.30
2013,09,29,05,14,6.30
2013,09,29,05,15,7.30
2013,09,29,05,16,9.00
2013,09,29,05,17,8.90
2013,09,29,05,18,6.10
2013,09,29,05,19,1.90
2013,09,29,05,20,4.20
2013,09,29,05,21,5.60
2013,09,29,05,22,5.40
2013,09,29,05,23,2.50
2013,09,29,05,24,0.00
2013,09,29,05,25,0.00
2013,09,29,05,26,0.50
2013,09,29,05,27,0.00
2013,09,29,05,28,0.00
2013,09,29,05,29,0.00
2013,09,29,05,30,1.00
2013,09,29,05,31,0.50
2013,09,29,05,32,3.40
2013,09,29,05,33,3.30
2013,09,29,05,34,3.90
2013,09,29,05,35,1.60
2013,09,29,05,36,2.20
2013,09,29,05,37,3.20
2013,09,29,05,38,3.10
2013,09,29,05,39,3.90
2013,09,29,05,40,6.00
2013,09,29,05,41,1.30
2013,09,29,05,42,2.00
2013,09,29,05,43,2.70
2013,09,29,05,44,1.70
2013,09,29,05,45,4.40
2013,09,29,05,46,2.30
2013,09,29,05,47,0.30
2013,09,29,05,48,1.10
2013,09,29,05,49,0.00
2013,09,29,05,50,1.80
2013,09,29,05,51,6.60
2013,09,29,05,52,6.60
2013,09,29,05,53,6.40
2013,09,29,05,54,7.50
2013,09,29,05,55,6.90
2013,09,29,05,56,7.00
2013,09,29,05,57,6.90
2013,09,29,05,58,8.40
2013,09,29,05,59,7.10
2013,09,29,06,00,6.80
2013,09,29,06,01,9.60
2013,09,29,06,02,7.90
2013,09,29,06,03,10.60
2013,09,29,06,04,13.10
2013,09,29,06,05,11.30
2013,09,29,06,06,13.50
2013,09,29,06,07,13.70
2013,09,29,06,08,13.60
2013,09,29,06,09,10.30
2013,09,29,06,10,10.10
2013,09,29,06,11,12.40
2013,09,29,06,12,11.80
2013,09,29,06,13,10.00
2013,09,29,06,14,13.40
2013,09,29,06,15,13.00
2013,09,29,06,16,10.60
2013,09,29,06,17,11.90
2013,09,29,06,18,14.60
2013,09,29,06,19,13.60
2013,09,29,06,20,13.40
2013,09,29,06,21,9.60
2013,09,29,06,22,7.70
2013,09,29,06,23,9.00
2013,09,29,06,24,7.70
2013,09,29,06,25,7.70
2013,09,29,06,26,7.80
2013,09,29,06,27,10.10
2013,09,29,06,28,12.20
2013,09,29,06,29,10.80
2013,09,29,06,30,8.10
2013,09,29,06,31,10.30
2013,09,29,06,32,9.00
2013,09,29,06,33,8.10
2013,09,29,06,34,11.50
2013,09,29,06,35,10.10
2013,09,29,06,36,15.80
2013,09,29,06,37,14.50
2013,09,29,06,38,11.70
2013,09,29,06,39,10.10
2013,09,29,06,40,12.80
2013,09,29,06,41,16.40
2013,09,29,06,42,13.00
2013,09,29,06,43,13.80
2013,09,29,06,44,15.50
2013,09,29,06,45,14.00
2013,09,29,06,46,14.60
2013,09,29,06,47,13.70
2013,09,29,06,48,14.90
2013,09,29,06,49,11.90
2013,09,29,06,50,14.90
2013,09,29,06,51,15.10
2013,09,29,06,52,12.80
2013,09,29,06,53,9.30
2013,09,29,06,54,10.50
2013,09,29,06,55,13.30
2013,09,29,06,56,10.80
2013,09,29,06,57,9.40
2013,09,29,06,58,12.60
2013,09,29,06,59,9.50
2013,09,29,07,00,10.90
2013,09,29,07,01,13.50
2013,09,29,07,02,8.00
2013,09,29,07,03,6.40
2013,09,29,07,04,6.20
2013,09,29,07,05,8.30
2013,09,29,07,06,8.30
2013,09,29,07,07,6.50
2013,09,29,07,08,6.00
2013,09,29,07,09,3.40
2013,09,29,07,10,6.30
2013,09,29,07,11,4.20
2013,09,29,07,12,1.00
2013,09,29,07,13,5.10
2013,09,29,07,14,8.90
2013,09,29,07,15,7.10
2013,09,29,07,16,6.10
2013,09,29,07,17,5.60
2013,09,29,07,18,7.30
2013,09,29,07,19,6.00
2013,09,29,07,20,7.70
2013,09,29,07,21,8.70
2013,09,29,07,22,8.00
2013,09,29,07,23,7.00
2013,09,29,07,24,7.90
2013,09,29,07,25,8.10
2013,09,29,07,26,6.80
2013,09,29,07,27,8.20
2013,09,29,07,28,4.50
2013,09,29,07,29,2.80
2013,09,29,07,30,2.80
2013,09,29,07,31,2.60
2013,09,29,07,32,5.40
2013,09,29,07,33,7.30
2013,09,29,07,34,7.80
2013,09,29,07,35,9.50
2013,09,29,07,36,4.70
2013,09,29,07,37,9.20
2013,09,29,07,38,7.20
2013,09,29,07,39,9.00
2013,09,29,07,40,9.90
2013,09,29,07,41,9.70
2013,09,29,07,42,9.90
2013,09,29,07,43,9.00
2013,09,29,07,44,8.90
2013,09,29,07,45,8.50
2013,09,29,07,46,5.50
2013,09,29,07,47,6.10
2013,09,29,07,48,5.60
2013,09,29,07,49,5.60
2013,09,29,07,50,1.50
2013,09,29,07,51,4.10
2013,09,29,07,52,7.10
2013,09,29,07,53,5.00
2013,09,29,07,54,8.80
2013,09,29,07,55,11.90
2013,09,29,07,56,7.50
2013,09,29,07,57,7.90
2013,09,29,07,58,5.50
2013,09,29,07,59,9.40
2013,09,29,08,00,5.20
2013,09,29,08,01,7.50
2013,09,29,08,02,7.70
2013,09,29,08,03,10.20
2013,09,29,08,04,9.80
2013,09,29,08,05,12.40
2013,09,29,08,06,11.60
2013,09,29,08,07,9.30
2013,09,29,08,08,12.70
2013,09,29,08,09,9.70
2013,09,29,08,10,14.40
2013,09,29,08,11,10.30
2013,09,29,08,12,10.10
2013,09,29,08,13,10.10
2013,09,29,08,14,17.40
2013,09,29,08,15,10.70
2013,09,29,08,16,8.70
2013,09,29,08,17,8.70
2013,09,29,08,18,8.50
2013,09,29,08,19,10.00
2013,09,29,08,20,12.40
2013,09,29,08,21,11.70
2013,09,29,08,22,9.40
2013,09,29,08,23,14.70
2013,09,29,08,24,8.60
2013,09,29,08,25,12.10
2013,09,29,08,26,10.60
2013,09,29,08,27,10.80
2013,09,29,08,28,12.10
2013,09,29,08,29,11.30
2013,09,29,08,30,9.50
2013,09,29,08,31,11.60
2013,09,29,08,32,14.20
2013,09,29,08,33,8.30
2013,09,29,08,34,10.60
2013,09,29,08,35,10.90
2013,09,29,08,36,12.20
2013,09,29,08,37,9.50
2013,09,29,08,38,10.50
2013,09,29,08,39,10.30
2013,09,29,08,40,6.80
2013,09,29,08,41,7.20
2013,09,29,08,42,5.70
2013,09,29,08,43,9.40
2013,09,29,08,44,6.80
2013,09,29,08,45,7.70
2013,09,29,08,46,6.40
2013,09,29,08,47,4.50
2013,09,29,08,48,4.40
2013,09,29,08,49,4.90
2013,09,29,08,50,4.20
2013,09,29,08,51,7.20
2013,09,29,08,52,7.10
2013,09,29,08,53,6.80
2013,09,29,08,54,7.70
2013,09,29,08,55,7.20
2013,09,29,08,56,8.90
2013,09,29,08,57,8.90
2013,09,29,08,58,8.80
2013,09,29,08,59,7.60
2013,09,29,09,00,6.90
2013,09,29,09,01,9.50
2013,09,29,09,02,10.90
2013,09,29,09,03,10.10
2013,09,29,09,04,5.20
2013,09,29,09,05,7.80
2013,09,29,09,06,8.90
2013,09,29,09,07,2.60
2013,09,29,09,08,5.40
2013,09,29,09,09,2.10
2013,09,29,09,10,3.50
2013,09,29,09,11,7.30
2013,09,29,09,12,4.00
2013,09,29,09,13,4.20
2013,09,29,09,14,6.10
2013,09,29,09,15,6.40
2013,09,29,09,16,8.80
2013,09,29,09,17,2.10
2013,09,29,09,18,2.20
2013,09,29,09,19,1.10
2013,09,29,09,20,0.00
2013,09,29,09,21,0.00
2013,09,29,09,22,2.70
2013,09,29,09,23,1.60
2013,09,29,09,24,0.60
2013,09,29,09,25,1.90
2013,09,29,09,26,3.20
2013,09,29,09,27,3.40
2013,09,29,09,28,0.40
2013,09,29,09,29,0.00
2013,09,29,09,30,0.00
2013,09,29,09,31,0.00
2013,09,29,09,32,0.00
2013,09,29,09,33,0.00
2013,09,29,09,34,0.00
2013,09,29,09,35,1.30
2013,09,29,09,36,6.50
2013,09,29,09,37,3.00
2013,09,29,09,38,2.10
2013,09,29,09,39,0.90
2013,09,29,09,40,0.20
2013,09,29,09,41,1.60
2013,09,29,09,42,1.10
2013,09,29,09,43,1.40
2013,09,29,09,44,1.10
2013,09,29,09,45,0.70
2013,09,29,09,46,1.30
2013,09,29,09,47,0.60
2013,09,29,09,48,0.10
2013,09,29,09,49,0.00
2013,09,29,09,50,1.70
2013,09,29,09,51,2.60
2013,09,29,09,52,6.10
2013,09,29,09,53,3.90
2013,09,29,09,54,3.50
2013,09,29,09,55,0.70
2013,09,29,09,56,1.90
2013,09,29,09,57,0.50
2013,09,29,09,58,4.00
2013,09,29,09,59,2.50
2013,09,29,10,00,1.10
2013,09,29,10,01,0.00
2013,09,29,10,02,0.00
2013,09,29,10,03,0.10
2013,09,29,10,04,0.00
2013,09,29,10,05,0.00
2013,09,29,10,06,0.00
2013,09,29,10,07,5.10
2013,09,29,10,08,2.90
2013,09,29,10,09,1.90
2013,09,29,10,10,0.00
2013,09,29,10,11,0.00
2013,09,29,10,12,0.00
2013,09,29,10,13,0.30
2013,09,29,10,14,4.10
2013,09,29,10,15,2.50
2013,09,29,10,16,3.50
2013,09,29,10,17,4.80
2013,09,29,10,18,7.30
2013,09,29,10,19,6.80
2013,09,29,10,20,5.90
2013,09,29,10,21,3.60
2013,09,29,10,22,5.70
2013,09,29,10,23,5.90
2013,09,29,10,24,7.90
2013,09,29,10,25,11.10
2013,09,29,10,26,15.40
2013,09,29,10,27,22.00
2013,09,29,10,28,18.50
2013,09,29,10,29,9.80
2013,09,29,10,30,16.20
2013,09,29,10,31,11.30
2013,09,29,10,32,15.00
2013,09,29,10,33,9.70
2013,09,29,10,34,6.30
2013,09,29,10,35,4.70
2013,09,29,10,36,6.90
2013,09,29,10,37,4.80
2013,09,29,10,38,6.40
2013,09,29,10,39,8.60
2013,09,29,10,40,8.30
2013,09,29,10,41,6.70
2013,09,29,10,42,7.10
2013,09,29,10,43,9.40
2013,09,29,10,44,8.50
2013,09,29,10,45,7.30
2013,09,29,10,46,8.60
2013,09,29,10,47,6.00
2013,09,29,10,48,8.40
2013,09,29,10,49,12.40
2013,09,29,10,50,8.80
2013,09,29,10,51,6.80
2013,09,29,10,52,9.00
2013,09,29,10,53,7.70
2013,09,29,10,54,4.70
2013,09,29,10,55,6.40
2013,09,29,10,56,7.50
2013,09,29,10,57,6.40
2013,09,29,10,58,5.30
2013,09,29,10,59,5.40
2013,09,29,11,00,5.50
2013,09,29,11,01,6.10
2013,09,29,11,02,7.20
2013,09,29,11,03,6.40
2013,09,29,11,04,8.50
2013,09,29,11,05,8.50
2013,09,29,11,06,9.70
2013,09,29,11,07,7.10
2013,09,29,11,08,3.70
2013,09,29,11,09,8.50
2013,09,29,11,10,5.80
2013,09,29,11,11,6.30
2013,09,29,11,12,2.90
2013,09,29,11,13,4.60
2013,09,29,11,14,3.00
2013,09,29,11,15,3.50
2013,09,29,11,16,3.10
2013,09,29,11,17,7.10
2013,09,29,11,18,3.60
2013,09,29,11,19,4.00
2013,09,29,11,20,4.10
2013,09,29,11,21,4.40
2013,09,29,11,22,4.30
2013,09,29,11,23,5.30
2013,09,29,11,24,6.20
2013,09,29,11,25,6.40
2013,09,29,11,26,6.70
2013,09,29,11,27,5.20
2013,09,29,11,28,5.30
2013,09,29,11,29,7.30
2013,09,29,11,30,7.00
2013,09,29,11,31,7.60
2013,09,29,11,32,7.40
2013,09,29,11,33,8.50
2013,09,29,11,34,4.60
2013,09,29,11,35,2.80
2013,09,29,11,36,5.70
2013,09,29,11,37,0.00
2013,09,29,11,38,0.00
2013,09,29,11,39,2.50
2013,09,29,11,40,7.10
2013,09,29,11,41,9.70
2013,09,29,11,42,9.90
2013,09,29,11,43,8.90
2013,09,29,11,44,8.30
2013,09,29,11,45,7.30
2013,09,29,11,46,6.40
2013,09,29,11,47,1.30
2013,09,29,11,48,0.00
2013,09,29,11,49,0.80
2013,09,29,11,50,0.10
2013,09,29,11,51,2.10
2013,09,29,11,52,1.70
2013,09,29,11,53,2.90
2013,09,29,11,54,5.10
2013,09,29,11,55,3.20
2013,09,29,11,56,0.00
2013,09,29,11,57,0.00
2013,09,29,11,58,0.00
2013,09,29,11,59,0.30
2013,09,29,12,00,0.80
2013,09,29,12,01,0.00
2013,09,29,12,02,0.00
2013,09,29,12,03,0.00
2013,09,29,12,04,2.00
2013,09,29,12,05,0.00
2013,09,29,12,06,0.00
2013,09,29,12,07,0.00
2013,09,29,12,08,1.20
2013,09,29,12,09,3.00
2013,09,29,12,10,2.20
2013,09,29,12,11,1.60
2013,09,29,12,12,0.00
2013,09,29,12,13,1.10
2013,09,29,12,14,0.00
2013,09,29,12,15,0.00
2013,09,29,12,16,1.40
2013,09,29,12,17,0.00
2013,09,29,12,18,0.00
2013,09,29,12,19,0.00
2013,09,29,12,20,0.00
2013,09,29,12,21,0.00
2013,09,29,12,22,2.40
2013,09,29,12,23,6.20
2013,09,29,12,24,5.60
2013,09,29,12,25,3.00
2013,09,29,12,26,0.00
2013,09,29,12,27,0.80
2013,09,29,12,28,2.00
2013,09,29,12,29,0.00
2013,09,29,12,30,0.00
2013,09,29,12,31,0.90
2013,09,29,12,32,0.20
2013,09,29,12,33,4.80
2013,09,29,12,34,5.50
2013,09,29,12,35,3.40
2013,09,29,12,36,3.50
2013,09,29,12,37,0.60
2013,09,29,12,38,1.80
2013,09,29,12,39,1.30
2013,09,29,12,40,0.00
2013,09,29,12,41,0.00
2013,09,29,12,42,1.30
2013,09,29,12,43,1.50
2013,09,29,12,44,0.20
2013,09,29,12,45,0.70
2013,09,29,12,46,0.00
2013,09,29,12,47,0.00
2013,09,29,12,48,0.00
2013,09,29,12,49,0.00
2013,09,29,12,50,0.00
2013,09,29,12,51,0.00
2013,09,29,12,52,0.10
2013,09,29,12,53,0.00
2013,09,29,12,54,0.00
2013,09,29,12,55,0.00
2013,09,29,12,56,0.00
2013,09,29,12,57,0.00
2013,09,29,12,58,2.70
2013,09,29,12,59,2.10
2013,09,29,13,00,0.10
2013,09,29,13,01,0.10
2013,09,29,13,02,0.00
2013,09,29,13,03,0.00
2013,09,29,13,04,0.00
2013,09,29,13,05,0.00
2013,09,29,13,06,0.00
2013,09,29,13,07,0.10
2013,09,29,13,08,1.70
2013,09,29,13,09,3.50
2013,09,29,13,10,3.70
2013,09,29,13,11,4.30
2013,09,29,13,12,4.20
2013,09,29,13,13,4.10
2013,09,29,13,14,3.90
2013,09,29,13,15,4.70
2013,09,29,13,16,3.10
2013,09,29,13,17,3.70
2013,09,29,13,18,3.60
2013,09,29,13,19,4.70
2013,09,29,13,20,4.40
2013,09,29,13,21,1.90
2013,09,29,13,22,0.30
2013,09,29,13,23,0.90
2013,09,29,13,24,0.60
2013,09,29,13,25,0.00
2013,09,29,13,26,0.10
2013,09,29,13,27,0.90
2013,09,29,13,28,0.00
2013,09,29,13,29,0.00
2013,09,29,13,30,0.10
2013,09,29,13,31,0.00
2013,09,29,13,32,0.00
2013,09,29,13,33,0.00
2013,09,29,13,34,0.00
2013,09,29,13,35,0.00
2013,09,29,13,36,0.00
2013,09,29,13,37,0.00
2013,09,29,13,38,1.00
2013,09,29,13,39,2.70
2013,09,29,13,40,0.00
2013,09,29,13,41,1.10
2013,09,29,13,42,0.30
2013,09,29,13,43,1.20
2013,09,29,13,44,1.60
2013,09,29,13,45,0.00
2013,09,29,13,46,1.40
2013,09,29,13,47,0.20
2013,09,29,13,48,0.00
2013,09,29,13,49,0.00
2013,09,29,13,50,0.00
2013,09,29,13,51,0.00
2013,09,29,13,52,0.00
2013,09,29,13,53,0.00
2013,09,29,13,54,0.00
2013,09,29,13,55,0.10
2013,09,29,13,56,0.40
2013,09,29,13,57,0.00
2013,09,29,13,58,1.20
2013,09,29,13,59,0.70
2013,09,29,14,00,0.40
2013,09,29,14,01,0.50
2013,09,29,14,02,0.00
2013,09,29,14,03,0.00
2013,09,29,14,04,0.20
2013,09,29,14,05,0.10
2013,09,29,14,06,0.10
2013,09,29,14,07,1.10
2013,09,29,14,08,0.80
2013,09,29,14,09,2.20
2013,09,29,14,10,5.50
2013,09,29,14,11,7.90
2013,09,29,14,12,7.90
2013,09,29,14,13,6.50
2013,09,29,14,14,4.70
2013,09,29,14,15,5.70
2013,09,29,14,16,8.30
2013,09,29,14,17,8.30
2013,09,29,14,18,7.60
2013,09,29,14,19,2.80
2013,09,29,14,20,1.40
2013,09,29,14,21,2.70
2013,09,29,14,22,4.90
2013,09,29,14,23,4.80
2013,09,29,14,24,0.80
2013,09,29,14,25,0.90
2013,09,29,14,26,1.40
2013,09,29,14,27,3.00
2013,09,29,14,28,0.70
2013,09,29,14,29,0.00
2013,09,29,14,30,0.00
2013,09,29,14,31,2.30
2013,09,29,14,32,1.20
2013,09,29,14,33,0.40
2013,09,29,14,34,3.30
2013,09,29,14,35,0.70
2013,09,29,14,36,0.40
2013,09,29,14,37,0.10
2013,09,29,14,38,2.40
2013,09,29,14,39,2.20
2013,09,29,14,40,1.40
2013,09,29,14,41,1.00
2013,09,29,14,42,0.80
2013,09,29,14,43,2.90
2013,09,29,14,44,0.00
2013,09,29,14,45,0.00
2013,09,29,14,46,0.00
2013,09,29,14,47,3.20
2013,09,29,14,48,1.70
2013,09,29,14,49,2.40
2013,09,29,14,50,2.60
2013,09,29,14,51,1.90
2013,09,29,14,52,0.60
2013,09,29,14,53,0.70
2013,09,29,14,54,0.00
2013,09,29,14,55,0.00
2013,09,29,14,56,0.10
2013,09,29,14,57,0.80
2013,09,29,14,58,0.50
2013,09,29,14,59,0.20
2013,09,29,15,00,0.00
2013,09,29,15,01,0.00
2013,09,29,15,02,0.10
2013,09,29,15,03,1.40
2013,09,29,15,04,0.80
2013,09,29,15,05,0.00
2013,09,29,15,06,1.00
2013,09,29,15,07,1.70
2013,09,29,15,08,1.00
2013,09,29,15,09,0.60
2013,09,29,15,10,0.00
2013,09,29,15,11,0.00
2013,09,29,15,12,0.40
2013,09,29,15,13,0.00
2013,09,29,15,14,0.00
2013,09,29,15,15,0.70
2013,09,29,15,16,0.00
2013,09,29,15,17,0.00
2013,09,29,15,18,0.00
2013,09,29,15,19,0.00
2013,09,29,15,20,0.10
2013,09,29,15,21,1.40
2013,09,29,15,22,2.50
2013,09,29,15,23,0.00
2013,09,29,15,24,0.00
2013,09,29,15,25,0.00
2013,09,29,15,26,0.00
2013,09,29,15,27,0.70
2013,09,29,15,28,6.10
2013,09,29,15,29,7.20
2013,09,29,15,30,5.10
2013,09,29,15,31,6.50
2013,09,29,15,32,15.30
2013,09,29,15,33,11.80
2013,09,29,15,34,10.10
2013,09,29,15,35,11.40
2013,09,29,15,36,6.70
2013,09,29,15,37,8.20
2013,09,29,15,38,5.50
2013,09,29,15,39,8.90
2013,09,29,15,40,9.30
2013,09,29,15,41,8.00
2013,09,29,15,42,11.70
2013,09,29,15,43,5.60
2013,09,29,15,44,4.90
2013,09,29,15,45,9.00
2013,09,29,15,46,10.10
2013,09,29,15,47,6.30
2013,09,29,15,48,8.10
2013,09,29,15,49,12.60
2013,09,29,15,50,6.70
2013,09,29,15,51,11.70
2013,09,29,15,52,9.30
2013,09,29,15,53,10.30
2013,09,29,15,54,20.80
2013,09,29,15,55,14.60
2013,09,29,15,56,16.50
2013,09,29,15,57,12.00
2013,09,29,15,58,10.80
2013,09,29,15,59,13.40
2013,09,29,16,00,18.30
2013,09,29,16,01,22.40
2013,09,29,16,02,20.00
2013,09,29,16,03,20.80
2013,09,29,16,04,22.00
2013,09,29,16,05,18.80
2013,09,29,16,06,12.30
2013,09,29,16,07,13.00
2013,09,29,16,08,17.20
2013,09,29,16,09,22.40
2013,09,29,16,10,12.60
2013,09,29,16,11,23.00
2013,09,29,16,12,20.00
2013,09,29,16,13,24.10
2013,09,29,16,14,24.10
2013,09,29,16,15,18.50
2013,09,29,16,16,21.40
2013,09,29,16,17,28.10
2013,09,29,16,18,24.90
2013,09,29,16,19,21.10
2013,09,29,16,20,16.80
2013,09,29,16,21,17.80
2013,09,29,16,22,24.50
2013,09,29,16,23,20.40
2013,09,29,16,24,18.00
2013,09,29,16,25,26.10
2013,09,29,16,26,27.10
2013,09,29,16,27,17.20
2013,09,29,16,28,15.30
2013,09,29,16,29,20.50
2013,09,29,16,30,18.00
2013,09,29,16,31,18.90
2013,09,29,16,32,27.90
2013,09,29,16,33,24.40
2013,09,29,16,34,32.10
2013,09,29,16,35,27.50
2013,09,29,16,36,26.60
2013,09,29,16,37,23.30
2013,09,29,16,38,24.00
2013,09,29,16,39,22.70
2013,09,29,16,40,20.30
2013,09,29,16,41,23.50
2013,09,29,16,42,18.70
2013,09,29,16,43,25.50
2013,09,29,16,44,31.70
2013,09,29,16,45,34.90
2013,09,29,16,46,25.70
2013,09,29,16,47,26.60
2013,09,29,16,48,22.60
2013,09,29,16,49,31.80
2013,09,29,16,50,29.50
2013,09,29,16,51,28.30
2013,09,29,16,52,24.60
2013,09,29,16,53,19.50
2013,09,29,16,54,32.10
2013,09,29,16,55,32.70
2013,09,29,16,56,33.30
2013,09,29,16,57,26.80
2013,09,29,16,58,26.60
2013,09,29,16,59,15.10
2013,09,29,17,00,19.20
2013,09,29,17,01,24.80
2013,09,29,17,02,29.10
2013,09,29,17,03,30.10
2013,09,29,17,04,32.40
2013,09,29,17,05,27.80
2013,09,29,17,06,21.70
2013,09,29,17,07,27.80
2013,09,29,17,08,32.40
2013,09,29,17,09,27.60
2013,09,29,17,10,22.60
2013,09,29,17,11,29.50
2013,09,29,17,12,22.80
2013,09,29,17,13,28.90
2013,09,29,17,14,24.70
2013,09,29,17,15,24.70
2013,09,29,17,16,27.00
2013,09,29,17,17,25.90
2013,09,29,17,18,21.60
2013,09,29,17,19,26.30
2013,09,29,17,20,24.50
2013,09,29,17,21,25.70
2013,09,29,17,22,26.90
2013,09,29,17,23,21.40
2013,09,29,17,24,25.70
2013,09,29,17,25,28.40
2013,09,29,17,26,21.20
2013,09,29,17,27,21.20
2013,09,29,17,28,28.10
2013,09,29,17,29,24.20
2013,09,29,17,30,21.10
2013,09,29,17,31,22.00
2013,09,29,17,32,29.60
2013,09,29,17,33,26.90
2013,09,29,17,34,25.50
2013,09,29,17,35,30.80
2013,09,29,17,36,25.70
2013,09,29,17,37,31.30
2013,09,29,17,38,26.50
2013,09,29,17,39,33.20
2013,09,29,17,40,32.00
2013,09,29,17,41,31.30
2013,09,29,17,42,27.00
2013,09,29,17,43,29.70
2013,09,29,17,44,31.30
2013,09,29,17,45,29.30
2013,09,29,17,46,28.20
2013,09,29,17,47,26.70
2013,09,29,17,48,24.70
2013,09,29,17,49,22.60
2013,09,29,17,50,18.70
2013,09,29,17,51,32.20
2013,09,29,17,52,31.70
2013,09,29,17,53,23.00
2013,09,29,17,54,30.20
2013,09,29,17,55,24.80
2013,09,29,17,56,22.60